Location: Namasale
(1.5000°N, 32.6167°E)
Time: 18:28:05
(UTC+00:00)

Courier 1B - Pass Details

Date: 27 April 2021
Orbit: 962 x 1209 km, 28.3° (Epoch: 18 May)

Event Time Altitude Azimuth Distance (km) Brightness Sun altitude
Rises 07:22:19 0° 294° (WNW) 3,979 10.4 52.1°
Reaches altitude 10° 07:28:30 10° 331° (NNW) 2,939 10.1 53.5°
Maximum altitude 07:29:42 10° 341° (NNW) 2,890 10.1 53.8°
Drops below altitude 10° 07:30:55 10° 351° (N) 2,906 10.2 54.1°
Sets 07:36:49 0° 30° (NNE) 3,779 11.0 55.5°
